Location: Angwan Shehu
(11.2514°N, 7.4613°E)
Time: 13:02:39
(UTC+00:00)

Sich 1 - Pass Details

Date: 14 November 2019
Orbit: 595 x 625 km, 82.5° (Epoch: 12 December)

Event Time Altitude Azimuth Distance (km) Brightness Sun altitude
Rises 17:54:20 0° 357° (N) 2,863 6.3 -12.8°
Reaches altitude 10° 17:56:32 10° 358° (N) 1,964 5.5 -13.3°
Maximum altitude 18:00:54 82° 86° (E) 624 2.9 -14.4°
Drops below altitude 10° 18:05:17 10° 174° (S) 1,981 5.8 -15.4°
Sets 18:07:31 0° 175° (S) 2,889 6.6 -15.9°
